Location: Possagno
(45.8500°N, 11.8667°E)
Time: 21:21:13
(UTC+00:00)

Resurs 1-4 Rocket - Pass Details

Date: 05 October 2020
Orbit: 800 x 813 km, 98.6° (Epoch: 27 October)

Event Time Altitude Azimuth Distance (km) Brightness Sun altitude
Rises 02:16:10 0° 2° (N) 3,334 5.7 -31.2°
Reaches altitude 10° 02:19:00 10° 347° (NNW) 2,401 4.7 -30.8°
Enters shadow 02:19:58 14° 339° (NNW) 2,138 4.3 -30.6°
